Weather History for North Padre Island, TX

Change the Weather History Date:

Saturday, November 17, 2012

  Actual Average Record
Temperature  
Mean Temperature 70 °F -  
Max Temperature 71 °F - - ()
Min Temperature 68 °F - - ()
Cooling Degree Days 4    
Growing Degree Days 20 (Base 50)    
Moisture  
Dew Point 53 °F    
Average Humidity 55    
Maximum Humidity 60    
Minimum Humidity 50    
Precipitation  
Precipitation 0.00 in - - ()
Sea Level Pressure  
Sea Level Pressure 30.26 in    
Wind  
Wind Speed 10 mph (NE)    
Max Wind Speed 15 mph    
Max Gust Speed 21 mph    
Visibility 9 miles    
Events      
T = Trace of Precipitation, MM = Missing Value Source: NWS Daily Summary

Daily Weather History Graph

Daily Weather History Graph

Search for Another Location

Airport:

Trip Planner

Search our weather history database for the weather conditions in past years. The results will help you decide how hot, cold, wet, or windy it might be!

Date:

Astronomy

Nov. 17, 2012 Rise Set
Actual Time 6:49 AM CST 5:36 PM CST
Civil Twilight 6:24 AM CST 6:00 PM CST
Nautical Twilight 5:56 AM CST 6:28 PM CST
Astronomical Twilight 5:28 AM CST 6:56 PM CST
Moon 10:34 AM CST (11/17) 9:45 PM CST (11/17)
Length of Visible Light 11h 36m
Length of Day
10h 46m
Waxing Crescent, 20% of the Moon is Illuminated
Nov 17
Waxing Crescent
Nov 20
First Quarter
Nov 28
Full
Dec 6
Last Quarter
Dec 13
New

Hourly Weather History & Observations

Time (CST) Temp. Dew Point Humidity Pressure Visibility Wind Dir Wind Speed Gust Speed Precip Events Conditions
12:15 AM 68.0 °F 53.6 °F 60% 30.27 in 8.0 mi NNE 11.5 mph 20.7 mph N/A   Scattered Clouds
12:35 AM 68.0 °F 51.8 °F 56% 30.26 in - NNE 10.4 mph 17.3 mph N/A   Mostly Cloudy
12:55 AM 68.0 °F 53.6 °F 60% 30.26 in 7.0 mi NNE 8.1 mph 17.3 mph N/A   Mostly Cloudy
1:15 AM 68.0 °F 51.8 °F 56% 30.27 in 10.0 mi NNE 12.7 mph - N/A   Mostly Cloudy
1:35 AM 68.0 °F 51.8 °F 56% 30.27 in 10.0 mi NNE 6.9 mph - N/A   Mostly Cloudy
1:55 AM 68.0 °F 51.8 °F 56% 30.27 in 10.0 mi NNE 11.5 mph - N/A   Mostly Cloudy
2:15 AM 68.0 °F 51.8 °F 56% 30.27 in 10.0 mi NNE 10.4 mph - N/A   Mostly Cloudy
2:35 AM 68.0 °F 51.8 °F 56% 30.25 in 9.0 mi NNE 11.5 mph - N/A   Scattered Clouds
2:55 AM 68.0 °F 51.8 °F 56% 30.25 in 10.0 mi NNE 11.5 mph - N/A   Mostly Cloudy
3:15 AM 68.0 °F 51.8 °F 56% 30.25 in 9.0 mi NE 9.2 mph 16.1 mph N/A   Scattered Clouds
3:35 AM 68.0 °F 51.8 °F 56% 30.26 in 10.0 mi NNE 9.2 mph - N/A   Mostly Cloudy
3:55 AM 68.0 °F 51.8 °F 56% 30.25 in 9.0 mi NNE 8.1 mph 17.3 mph N/A   Mostly Cloudy
4:15 AM 68.0 °F 51.8 °F 56% 30.25 in 7.0 mi NNE 10.4 mph 17.3 mph N/A   Scattered Clouds
4:35 AM 68.0 °F 51.8 °F 56% 30.25 in 10.0 mi NNE 8.1 mph 15.0 mph N/A   Partly Cloudy
4:55 AM 68.0 °F 53.6 °F 60% 30.24 in 9.0 mi NNE 10.4 mph - N/A   Mostly Cloudy
5:15 AM 68.0 °F 51.8 °F 56% 30.24 in 9.0 mi NNE 9.2 mph 16.1 mph N/A   Scattered Clouds
5:35 AM 68.0 °F 51.8 °F 56% 30.24 in 10.0 mi NNE 9.2 mph 15.0 mph N/A   Partly Cloudy
5:55 AM 68.0 °F 50.0 °F 52% 30.25 in 7.0 mi NE 9.2 mph - N/A   Clear
6:15 AM 68.0 °F 51.8 °F 56% 30.26 in 9.0 mi NE 8.1 mph - N/A   Scattered Clouds
6:35 AM 69.8 °F 51.8 °F 53% 30.27 in 10.0 mi NNE 8.1 mph 13.8 mph N/A   Scattered Clouds
6:55 AM 68.0 °F 51.8 °F 56% 30.26 in 9.0 mi North 6.9 mph - N/A   Mostly Cloudy
7:15 AM 69.8 °F 53.6 °F 56% 30.27 in 7.0 mi NE 11.5 mph - N/A   Overcast
7:35 AM 69.8 °F 51.8 °F 53% 30.27 in 7.0 mi NE 12.7 mph - N/A   Mostly Cloudy
7:55 AM 69.8 °F 51.8 °F 53% 30.27 in 8.0 mi NE 13.8 mph - N/A   Partly Cloudy
8:15 AM 69.8 °F 53.6 °F 56% 30.28 in 9.0 mi NNE 8.1 mph 16.1 mph N/A   Scattered Clouds
8:35 AM 69.8 °F 53.6 °F 56% 30.29 in 7.0 mi NNE 10.4 mph - N/A   Scattered Clouds
8:55 AM 69.8 °F 51.8 °F 53% 30.29 in 9.0 mi NNE 8.1 mph 15.0 mph N/A   Scattered Clouds
9:15 AM 69.8 °F 51.8 °F 53% 30.30 in 9.0 mi NE 10.4 mph - N/A   Partly Cloudy
9:35 AM 69.8 °F 51.8 °F 53% 30.30 in 9.0 mi NNE 6.9 mph 13.8 mph N/A   Clear
9:55 AM 69.8 °F 51.8 °F 53% 30.31 in 8.0 mi NE 10.4 mph - N/A   Clear
10:15 AM 69.8 °F 51.8 °F 53% 30.32 in 9.0 mi NE 8.1 mph 15.0 mph N/A   Partly Cloudy
10:35 AM 69.8 °F 51.8 °F 53% 30.31 in 8.0 mi NNE 10.4 mph - N/A   Scattered Clouds
11:15 AM 71.6 °F 53.6 °F 53% 30.30 in 6.0 mi NE 11.5 mph - N/A   Haze
11:35 AM 69.8 °F 53.6 °F 56% 30.29 in 6.0 mi NE 11.5 mph - N/A   Haze
11:55 AM 69.8 °F 55.4 °F 60% 30.29 in 8.0 mi NE 13.8 mph 19.6 mph N/A   Overcast
12:15 PM 69.8 °F 53.6 °F 56% 30.29 in 9.0 mi NE 12.7 mph - N/A   Mostly Cloudy
12:35 PM 69.8 °F 53.6 °F 56% 30.29 in 9.0 mi NE 13.8 mph - N/A   Partly Cloudy
12:55 PM 69.8 °F 53.6 °F 56% 30.27 in 9.0 mi NNE 12.7 mph - N/A   Partly Cloudy
1:15 PM 69.8 °F 53.6 °F 56% 30.26 in 9.0 mi NE 12.7 mph - N/A   Clear
1:35 PM 69.8 °F 51.8 °F 53% 30.25 in 8.0 mi NNE 9.2 mph - N/A   Clear
1:55 PM 69.8 °F 51.8 °F 53% 30.25 in 9.0 mi NNE 10.4 mph - N/A   Clear
2:15 PM 71.6 °F 51.8 °F 50% 30.25 in 6.0 mi NE 9.2 mph - N/A   Haze
2:35 PM 69.8 °F 53.6 °F 56% 30.24 in 9.0 mi NE 12.7 mph - N/A   Mostly Cloudy
2:55 PM 71.6 °F 53.6 °F 53% 30.24 in 7.0 mi NE 15.0 mph - N/A   Scattered Clouds
3:15 PM 69.8 °F 53.6 °F 56% 30.24 in 9.0 mi NE 13.8 mph - N/A   Scattered Clouds
3:35 PM 69.8 °F 53.6 °F 56% 30.24 in 7.0 mi NNE 11.5 mph 20.7 mph N/A   Scattered Clouds
3:55 PM 69.8 °F 53.6 °F 56% 30.24 in 7.0 mi NE 12.7 mph - N/A   Scattered Clouds
4:15 PM 69.8 °F 53.6 °F 56% 30.24 in 10.0 mi NE 11.5 mph - N/A   Scattered Clouds
4:35 PM 69.8 °F 53.6 °F 56% 30.24 in 9.0 mi NNE 8.1 mph 15.0 mph N/A   Scattered Clouds
4:55 PM 69.8 °F 53.6 °F 56% 30.24 in 9.0 mi NE 11.5 mph - N/A   Scattered Clouds
5:15 PM 69.8 °F 53.6 °F 56% 30.24 in 9.0 mi NE 12.7 mph - N/A   Partly Cloudy
5:35 PM 69.8 °F 53.6 °F 56% 30.24 in 9.0 mi NE 15.0 mph - N/A   Partly Cloudy
5:55 PM 69.8 °F 53.6 °F 56% 30.25 in 9.0 mi NE 13.8 mph - N/A   Clear
6:15 PM 69.8 °F 53.6 °F 56% 30.25 in 10.0 mi NE 10.4 mph 17.3 mph N/A   Mostly Cloudy
6:35 PM 69.8 °F 53.6 °F 56% 30.25 in 10.0 mi NE 11.5 mph - N/A   Mostly Cloudy
6:55 PM 69.8 °F 53.6 °F 56% 30.26 in 5.0 mi NE 15.0 mph - N/A   Haze
7:15 PM 69.8 °F 53.6 °F 56% 30.26 in 10.0 mi NE 13.8 mph - N/A   Mostly Cloudy
7:35 PM 69.8 °F 53.6 °F 56% 30.27 in 10.0 mi NE 11.5 mph - N/A   Mostly Cloudy
7:55 PM 69.8 °F 51.8 °F 53% 30.27 in 5.0 mi NE 10.4 mph - N/A   Haze
8:15 PM 69.8 °F 53.6 °F 56% 30.27 in 10.0 mi NE 10.4 mph - N/A   Partly Cloudy
8:35 PM 69.8 °F 53.6 °F 56% 30.27 in 9.0 mi NE 12.7 mph - N/A   Scattered Clouds
8:55 PM 69.8 °F 51.8 °F 53% 30.27 in 10.0 mi ENE 10.4 mph - N/A   Partly Cloudy
9:15 PM 69.8 °F 53.6 °F 56% 30.27 in 9.0 mi ENE 5.8 mph - N/A   Mostly Cloudy
9:35 PM 69.8 °F 53.6 °F 56% 30.26 in 10.0 mi NE 10.4 mph - N/A   Mostly Cloudy
9:55 PM 69.8 °F 53.6 °F 56% 30.27 in 10.0 mi NE 12.7 mph - N/A   Overcast
10:15 PM 69.8 °F 51.8 °F 53% 30.27 in 9.0 mi ENE 8.1 mph - N/A   Mostly Cloudy
10:35 PM 69.8 °F 51.8 °F 53% 30.26 in 10.0 mi ENE 6.9 mph - N/A   Clear
10:55 PM 69.8 °F 51.8 °F 53% 30.26 in 9.0 mi NE 6.9 mph - N/A   Partly Cloudy
11:15 PM 69.8 °F 53.6 °F 56% 30.25 in 9.0 mi Variable 5.8 mph 13.8 mph N/A   Scattered Clouds
11:35 PM 69.8 °F 53.6 °F 56% 30.24 in 9.0 mi NE 11.5 mph - N/A   Scattered Clouds
11:55 PM 69.8 °F 53.6 °F 56% 30.24 in - East 8.1 mph - N/A   Mostly Cloudy